Regional Weather Roundup
Issued by NWS

Home | Current Version | Previous Version | Graphics & Text | Print | Product List | Glossary On
Versions: 1 2 3 4 5 6 7 8 9 10 11 12 13 14 15 16 17 18 19 20 21 22 23 24 25 26 27 28 29 30 31 32 33 34 35 36 37 38 39 40 41 42 43 44 45 46 47 48 49 50
000
ASUS43 KFSD 031110
RWRSD

WEATHER ROUNDUP FOR SOUTH DAKOTA
NATIONAL WEATHER SERVICE SIOUX FALLS SD
600 AM CDT FRI JUL 03 2015

NOTE: "FAIR" INDICATES FEW OR NO CLOUDS BELOW 12,000 FEET WITH NO
SIGNIFICANT WEATHER AND/OR OBSTRUCTIONS TO VISIBILITY.


SDZ001>005-009-010-012>017-031200-
NORTHWEST AND NORTH CENTRAL SOUTH DAKOTA

CITY           SKY/WX    TMP DP  RH WIND       PRES   REMARKS
BUFFALO          N/A     60  55  83 CALM      30.00S
FAITH            N/A     62  56  80 SW3       30.04S
MOBRIDGE       CLEAR     61  61 100 CALM      29.98S FOG
$$

SDZ012>016-024>037-041>051-057-063-072>074-031200-
SOUTHWEST AND SOUTH CENTRAL SOUTH DAKOTA

CITY           SKY/WX    TMP DP  RH WIND       PRES   REMARKS
RAPID CTY ARPT CLEAR     58  55  90 SW3       30.08S
PIERRE         CLEAR     60  60 100 W5        29.99S FOG
CUSTER         CLEAR     53  49  86 NW5       30.20S
ELLSWORTH AFB  CLEAR     60  56  86 SW2       30.07S
PHILIP         CLEAR     58  56  93 W5        30.02F
PINE RIDGE     CLEAR     54  52  93 CALM      30.09S FOG
SPEARFISH      FAIR      55  54  94 CALM      30.12S
WINNER         LGT RAIN  62  59  90 SW3       30.02S FOG
$$

SDZ004>011-016>023-039-040-031200-
NORTHEAST SOUTH DAKOTA

CITY           SKY/WX    TMP DP  RH WIND       PRES   REMARKS
ABERDEEN       PTCLDY    60  59  96 S5        29.98R FOG
WATERTOWN      CLEAR     54  53  97 CALM      30.01R FOG
BROOKINGS      CLEAR     52  48  87 CALM      30.03S
SISSETON         N/A     65  60  84 W15       29.94F
$$

SDZ017-020-022-023-036>040-048>070-031200-
SOUTHEAST SOUTH DAKOTA

CITY           SKY/WX    TMP DP  RH WIND       PRES   REMARKS
SIOUX FALLS    FOG       52  51  97 CALM      30.01S VSB 1/4
HURON          FOG       58  58 100 CALM      29.99S VSB 1/4
CHAMBERLAIN    FOG       62  62 100 CALM      30.00S VSB<1/4
MITCHELL       FOG       61  61 100 CALM      30.01R VSB 1/4
YANKTON        MOCLDY    57  55  94 NE3       30.00R VSB 1/4
$$

ABBREVIATIONS USED IN REMARKS
   TC - TEMPERATURE IN CELSIUS
  WCI - WIND CHILL INDEX
   HX - HEAT INDEX
  VSB - VISIBILITY




USA.gov is the U.S. government's official web portal to all federal, state and local government web resources and services.